[[{"header":{"parameterUnit":"m.s-1","parameterCategory":1,"la1":30.2991,"la2":30.254,"lo1":-89.0895,"lo2":-89.0444,"dy":0.0017,"dx":0.0017,"nx":28,"ny":28,"refTime":"2024-04-30T21:00:00:Z","depth":0,"parameterNumber":2,"parameterNumberName":"U-component_of_WINDS"},"data":[0,0,0,0,0,0,0,0,0,0,0,0,0,0,0,0,0,0,0,0,0,0,0,0,0,0,0,0,0,0,0,0,0,0,0,0,0,0,0,0,0,0,0,0,0,0,0,0,0,0,0,0,0,0,0,0,0,0,-1.5999,-1.5998,0,-1.5952,-1.5951,-1.5951,-1.5913,-1.5913,-1.5912,-1.5912,-1.5862,-1.5861,-1.5861,0,0,0,0,0,0,0,0,0,0,0,0,0,-1.6056,-1.6055,-1.5999,-1.5998,-1.5998,-1.5952,-1.5951,-1.595,-1.5913,-1.5913,-1.5912,-1.5912,-1.5863,-1.5862,-1.586,0,0,0,0,0,0,0,0,0,0,0,0,0,-1.6022,-1.6055,-1.5999,-1.5974,-1.5971,-1.5952,-1.5951,-1.595,-1.5913,-1.5913,-1.5912,-1.5912,-1.5863,-1.5862,-1.586,-1.5862,0,0,-1.5856,-1.5855,0,0,0,0,0,0,0,0,-1.6024,-1.602,-1.5978,-1.5975,-1.5972,-1.5938,-1.5953,-1.5921,-1.5913,-1.5935,-1.5912,-1.5911,-1.5888,-1.5884,-1.5877,-1.586,-1.5858,-1.5856,-1.5855,-1.5854,-1.5854,0,0,0,0,0,0,0,-1.6027,-1.6022,-1.598,-1.5977,-1.5974,-1.5964,-1.5959,-1.5947,-1.5915,-1.5933,-1.593,-1.5925,-1.5886,-1.5878,-1.5875,-1.5857,-1.5856,-1.5854,-1.5853,-1.5853,-1.5841,-1.5841,0,0,0,0,0,0,-1.6033,-1.6024,-1.5982,-1.5979,-1.5997,-1.5964,-1.5958,-1.5949,-1.5915,-1.5909,-1.5926,-1.5924,-1.5881,-1.5877,-1.5873,-1.5874,-1.5854,-1.5853,-1.5852,-1.584,-1.5841,-1.5841,0,0,0,0,0,0,-1.6035,-1.603,-1.5983,-1.6001,-1.5994,-1.5963,-1.5954,-1.5949,-1.5941,-1.591,-1.5904,-1.5923,-1.588,-1.5875,-1.5866,-1.5871,-1.5852,-1.5851,-1.5839,-1.584,-1.5841,-1.5875,0,0,0,0,0,0,-1.6036,-1.603,-1.6031,-1.6001,-1.5993,-1.5977,-1.5955,-1.5948,-1.5938,-1.5935,-1.5906,-1.59,-1.5879,-1.5868,-1.5864,-1.5869,-1.585,-1.5839,-1.584,-1.5841,-1.5873,-1.5876,-1.588,0,0,0,0,0,-1.6039,-1.6042,-1.6031,-1.6026,-1.5993,-1.5977,-1.5973,-1.5949,-1.5939,-1.5939,-1.5919,-1.5901,-1.5872,-1.5867,-1.5863,-1.5867,-1.5838,-1.5839,-1.5841,-1.5871,-1.5876,-1.5879,0,0,0,0,0,0,-1.6072,-1.6037,-1.6025,-1.6019,-1.6001,-1.5971,-1.597,-1.5954,-1.5939,-1.5936,-1.5907,-1.5901,-1.5894,-1.588,-1.5876,-1.5868,-1.5853,-1.5853,-1.5878,-1.5881,-1.5885,-1.5888,-1.5848,0,0,0,0,0,-1.6079,-1.6069,-1.6039,-1.6036,-1.6028,-1.6001,-1.5993,-1.5976,-1.5957,-1.5949,-1.5929,-1.591,-1.5897,-1.5888,-1.5874,-1.5871,-1.5864,-1.5872,-1.5875,-1.5878,-1.5879,-1.5877,-1.588,-1.5845,-1.5845,-1.5845,0,0,-1.6092,-1.6072,-1.6068,-1.6042,-1.6027,-1.6017,-1.5995,-1.5985,-1.5978,-1.5947,-1.5937,-1.5922,-1.5899,-1.5893,-1.5889,-1.5881,-1.5887,-1.588,-1.5882,-1.5881,-1.5878,-1.5881,-1.5884,-1.5846,-1.5846,-1.5846,0,0,-1.6112,-1.6096,-1.6092,-1.6078,-1.6055,-1.6037,-1.6036,-1.6008,-1.5997,-1.5987,-1.5964,-1.5955,-1.5932,-1.5917,-1.5907,-1.5923,-1.5906,-1.5919,-1.5937,-1.5935,-1.5938,-1.594,-1.5946,-1.5948,-1.592,-1.592,-1.592,0,-1.6132,-1.6116,-1.6092,-1.6084,-1.6074,-1.6047,-1.6043,-1.603,-1.6004,-1.5998,-1.5989,-1.5961,-1.5943,-1.5934,-1.5938,-1.593,-1.5928,-1.5922,-1.5939,-1.5941,-1.5943,-1.5948,-1.5951,-1.5922,-1.5922,-1.5921,-1.5921,0,-1.6142,-1.6132,-1.6131,-1.6108,-1.6097,-1.6092,-1.6066,-1.6059,-1.6044,-1.6027,-1.6017,-1.5996,-1.5978,-1.5974,-1.5959,-1.5963,-1.5958,-1.5945,-1.5929,-1.5948,-1.5953,-1.5955,-1.5924,-1.5924,-1.5923,-1.5923,0,0,-1.618,-1.6144,-1.6144,-1.6134,-1.6107,-1.6099,-1.6092,-1.6075,-1.6069,-1.6052,-1.6046,-1.6028,-1.6016,-1.6005,-1.5987,-1.5986,-1.6001,-1.5973,-1.5972,-1.5979,-1.6004,-1.6014,-1.6017,-1.599,-1.599,-1.599,-1.6006,0,-1.6196,-1.6182,-1.6161,-1.6154,-1.6145,-1.612,-1.6115,-1.6098,-1.6083,-1.6072,-1.6055,-1.6043,-1.6028,-1.6021,-1.6018,-1.5999,-1.6005,-1.5998,-1.5983,-1.5983,-1.5989,-1.6019,-1.6029,-1.6045,-1.6007,-1.6008,-1.6008,0,-1.6211,-1.6197,-1.619,-1.6165,-1.6161,-1.6156,-1.6139,-1.6129,-1.611,-1.6099,-1.6087,-1.6069,-1.6061,-1.6047,-1.6035,-1.6031,-1.6024,-1.6014,-1.6014,-1.6011,-1.5996,-1.6017,-1.6049,-1.6052,-1.601,-1.601,-1.601,0,-1.624,-1.6219,-1.6212,-1.6204,-1.6175,-1.6172,-1.616,-1.614,-1.6132,-1.6117,-1.6111,-1.6095,-1.6087,-1.6075,-1.6053,-1.6045,-1.6045,-1.6029,-1.6035,-1.6036,-1.6035,-1.6036,-1.6067,-1.6032,-1.6032,-1.6032,-1.6031,0,-1.6259,-1.6256,-1.6225,-1.622,-1.6216,-1.6192,-1.6189,-1.6174,-1.6157,-1.615,-1.6128,-1.6121,-1.6093,-1.6084,-1.6067,-1.606,-1.6056,-1.6047,-1.6043,-1.6049,-1.605,-1.6043,-1.6042,-1.6032,-1.6032,-1.6032,-1.6032,0,-1.629,-1.6269,-1.626,-1.6234,-1.6228,-1.6226,-1.6203,-1.6198,-1.6182,-1.6173,-1.617,-1.6144,-1.6132,-1.611,-1.6091,-1.6079,-1.6076,-1.6069,-1.6083,-1.608,-1.6088,-1.6087,-1.6115,-1.6118,-1.6082,-1.6082,-1.6082,0,-1.6304,-1.6301,-1.6275,-1.6268,-1.6257,-1.6247,-1.6239,-1.6215,-1.6207,-1.6186,-1.6184,-1.617,-1.6158,-1.6139,-1.6119,-1.6105,-1.6097,-1.6108,-1.6094,-1.6101,-1.6097,-1.6097,-1.6097,-1.611,-1.6111,-1.6111,-1.6112,0,-1.633,-1.632,-1.6308,-1.6294,-1.6284,-1.6272,-1.6257,-1.6254,-1.6227,-1.6219,-1.6207,-1.6197,-1.6179,-1.6165,-1.6149,-1.6136,-1.612,-1.6116,-1.6117,-1.6123,-1.6132,-1.6127,-1.6091,-1.6115,-1.6115,-1.6115,-1.6115,-1.6114,-1.6352,-1.6349,-1.633,-1.6318,-1.6306,-1.6294,-1.6288,-1.6272,-1.6261,-1.6244,-1.6231,-1.622,-1.6202,-1.6178,-1.6167,-1.6157,-1.615,-1.6151,-1.6151,-1.6151,-1.6154,-1.6134,-1.6154,-1.6154,-1.6154,-1.6154,-1.6154,0,-1.6377,-1.6364,-1.6354,-1.6336,-1.6327,-1.6313,-1.6297,-1.629,-1.6281,-1.6266,-1.6255,-1.6241,-1.6228,-1.6208,-1.6193,-1.619,-1.6182,-1.6187,-1.6187,-1.6184,-1.6162,-1.6163,-1.6194,-1.6194,-1.6194,-1.6194,-1.6194,-1.6194,-1.6389,-1.6382,-1.6371,-1.6358,-1.6345,-1.6334,-1.6327,-1.6316,-1.6303,-1.6289,-1.6279,-1.6266,-1.6249,-1.6233,-1.6221,-1.6216,-1.6211,-1.6219,-1.6211,-1.619,-1.6186,-1.6182,-1.6183,-1.6218,-1.6218,-1.6234,-1.6234,-1.6234]},{"header":{"parameterUnit":"m.s-1","parameterCategory":1,"la1":30.2991,"la2":30.254,"lo1":-89.0895,"lo2":-89.0444,"dy":0.0017,"dx":0.0017,"nx":28,"ny":28,"refTime":"2024-04-30T21:00:00:Z","depth":0,"parameterNumber":3,"parameterNumberName":"V-component_of_WINDS"},"data":[0,0,0,0,0,0,0,0,0,0,0,0,0,0,0,0,0,0,0,0,0,0,0,0,0,0,0,0,0,0,0,0,0,0,0,0,0,0,0,0,0,0,0,0,0,0,0,0,0,0,0,0,0,0,0,0,0,0,2.3485,2.3485,0,2.3468,2.3468,2.3468,2.3501,2.3502,2.3503,2.3504,2.3481,2.3479,2.3478,0,0,0,0,0,0,0,0,0,0,0,0,0,2.3543,2.3542,2.3486,2.3485,2.3485,2.3468,2.3468,2.3468,2.3501,2.3502,2.3503,2.3505,2.3482,2.348,2.3478,0,0,0,0,0,0,0,0,0,0,0,0,0,2.3521,2.3541,2.3486,2.35,2.3501,2.3468,2.3468,2.3468,2.35,2.3502,2.3504,2.3505,2.3482,2.348,2.3477,2.3429,0,0,2.347,2.3469,0,0,0,0,0,0,0,0,2.3522,2.3519,2.3498,2.3499,2.35,2.3489,2.348,2.3455,2.35,2.35,2.3504,2.3506,2.3482,2.3479,2.3472,2.3428,2.3427,2.347,2.3468,2.3467,2.3466,0,0,0,0,0,0,0,2.3524,2.352,2.3479,2.3497,2.3499,2.3506,2.3504,2.3475,2.3482,2.35,2.3503,2.3501,2.3483,2.3475,2.3472,2.3426,2.347,2.3467,2.3466,2.3465,2.3342,2.334,0,0,0,0,0,0,2.3524,2.3521,2.3479,2.3478,2.3516,2.3503,2.3502,2.349,2.3482,2.3483,2.3499,2.3502,2.3478,2.3475,2.3471,2.3414,2.3467,2.3465,2.3463,2.3343,2.3341,2.3339,0,0,0,0,0,0,2.3525,2.352,2.348,2.35,2.3496,2.35,2.3487,2.3489,2.3481,2.3481,2.3482,2.349,2.3479,2.3475,2.344,2.3414,2.3464,2.3461,2.3346,2.3343,2.334,2.3299,0,0,0,0,0,0,2.3527,2.352,2.3503,2.35,2.3494,2.3449,2.3486,2.3488,2.3478,2.3481,2.3473,2.3473,2.348,2.3443,2.3437,2.3411,2.3459,2.3348,2.3344,2.3341,2.3302,2.3295,2.3289,0,0,0,0,0,2.3529,2.349,2.3501,2.3496,2.3473,2.3448,2.3445,2.3455,2.3475,2.3457,2.3458,2.3474,2.3418,2.3439,2.3433,2.3406,2.3349,2.3345,2.3341,2.3305,2.3296,2.3289,0,0,0,0,0,0,2.3488,2.349,2.3502,2.3462,2.3455,2.3453,2.343,2.3445,2.343,2.3434,2.3446,2.3444,2.3406,2.3403,2.3426,2.3359,2.3387,2.3381,2.3362,2.3353,2.3346,2.3347,2.3457,0,0,0,0,0,2.3474,2.3456,2.3458,2.3422,2.3418,2.3425,2.3415,2.3424,2.3416,2.3412,2.341,2.34,2.338,2.3367,2.3349,2.3303,2.3301,2.3281,2.3274,2.3269,2.3263,2.3238,2.3229,2.3326,2.3326,2.3326,0,0,2.3446,2.3445,2.3431,2.3414,2.3409,2.3388,2.3422,2.3398,2.3382,2.3408,2.3375,2.3373,2.3363,2.3322,2.3304,2.3318,2.3236,2.3263,2.3259,2.3256,2.3233,2.3224,2.3216,2.3323,2.3324,2.3324,0,0,2.3382,2.3381,2.3351,2.3346,2.3339,2.3345,2.3338,2.3335,2.3335,2.3303,2.3322,2.3303,2.3269,2.3261,2.3252,2.3189,2.3203,2.3183,2.3146,2.3122,2.3114,2.3107,2.3084,2.3075,2.3178,2.3178,2.3177,0,2.3347,2.3317,2.3333,2.3308,2.3299,2.3325,2.3294,2.3288,2.3275,2.3268,2.3285,2.3244,2.3239,2.3197,2.3182,2.3174,2.3165,2.3183,2.3114,2.3108,2.3101,2.3079,2.307,2.3175,2.3175,2.3176,2.3176,0,2.3274,2.3253,2.323,2.3219,2.3208,2.318,2.319,2.3177,2.3188,2.3191,2.3158,2.3154,2.3135,2.3126,2.3135,2.3085,2.3094,2.3113,2.3141,2.3089,2.3069,2.306,2.3171,2.3172,2.3173,2.3174,0,0,2.3181,2.3182,2.3173,2.3169,2.3164,2.3148,2.3121,2.3106,2.3094,2.3085,2.3062,2.3034,2.3051,2.3042,2.3051,2.303,2.2979,2.3051,2.305,2.3036,2.2923,2.2909,2.2898,2.299,2.2988,2.2987,2.2924,0,2.3118,2.3075,2.3088,2.3043,2.3024,2.3049,2.3026,2.302,2.3023,2.3006,2.3009,2.2989,2.3014,2.3008,2.2989,2.299,2.2956,2.2995,2.2967,2.2966,2.2967,2.2888,2.2872,2.2812,2.2916,2.2914,2.2913,0,2.3038,2.3028,2.2982,2.2982,2.2974,2.2953,2.2941,2.2925,2.2919,2.2923,2.2913,2.2927,2.29,2.2931,2.2893,2.2919,2.2909,2.2907,2.2905,2.2901,2.2935,2.288,2.2793,2.2784,2.2901,2.2902,2.2903,0,2.2974,2.2949,2.2918,2.2914,2.2914,2.2898,2.2897,2.2893,2.2883,2.2872,2.2866,2.2851,2.2842,2.283,2.2838,2.286,2.2799,2.283,2.28,2.28,2.2784,2.2784,2.2693,2.278,2.278,2.2781,2.2781,0,2.2901,2.2871,2.289,2.287,2.2838,2.2855,2.2821,2.2823,2.282,2.28,2.2821,2.2802,2.2816,2.2798,2.2805,2.2773,2.2769,2.277,2.2772,2.2767,2.2767,2.2759,2.2763,2.2778,2.2779,2.2779,2.278,0,2.2823,2.2834,2.2802,2.2806,2.2806,2.2782,2.2784,2.2766,2.2772,2.2747,2.2742,2.275,2.273,2.2739,2.2717,2.2722,2.268,2.2688,2.2682,2.2684,2.2652,2.2655,2.2551,2.2538,2.2635,2.2634,2.2634,0,2.2774,2.2753,2.2755,2.2744,2.2742,2.2725,2.2716,2.2732,2.2721,2.2714,2.2696,2.2679,2.2666,2.2633,2.2635,2.2619,2.2626,2.2591,2.2623,2.262,2.2624,2.2625,2.2622,2.2584,2.2582,2.2582,2.2581,0,2.2687,2.2695,2.2681,2.267,2.2659,2.2651,2.2644,2.2634,2.265,2.2637,2.2618,2.2608,2.2588,2.2569,2.2556,2.2553,2.2569,2.2571,2.2563,2.2557,2.2554,2.2554,2.2663,2.2573,2.2574,2.2574,2.2575,2.2575,2.2621,2.2603,2.2603,2.2587,2.2585,2.2578,2.2562,2.2567,2.2552,2.2538,2.2548,2.2525,2.2521,2.2505,2.25,2.2482,2.2496,2.2484,2.2481,2.2477,2.2473,2.2559,2.248,2.248,2.248,2.248,2.2481,0,2.2534,2.2536,2.2522,2.2513,2.2501,2.252,2.2514,2.2502,2.2483,2.2478,2.2466,2.2444,2.2428,2.2431,2.2415,2.24,2.2407,2.2395,2.2395,2.2394,2.2462,2.247,2.239,2.239,2.239,2.239,2.239,2.239,2.2487,2.2458,2.2465,2.2435,2.2436,2.2416,2.2411,2.2405,2.2402,2.2377,2.2364,2.2367,2.2366,2.2351,2.2336,2.2337,2.233,2.2315,2.2318,2.2381,2.239,2.2398,2.2406,2.2314,2.2313,2.2253,2.2252,2.2252]}]]